Radiation Dose at Monitoring Post of Fukushima Daini Nuclear Power Station
Date,Time,MP-1(microSv/h),MP-2(microSv/h),MP-3(microSv/h),MP-4(microSv/h),MP-5(microSv/h),MP-6(microSv/h),MP-7(microSv/h),Wind Direction,Wind Velocity(m/s),Rain
2019/01/22,00:00,0.219,0.198,0.322,0.300,0.281,0.160,0.096,west-northwest,11.5,No
2019/01/22,00:10,0.219,0.197,0.321,0.300,0.281,0.159,0.097,west-northwest,10.6,No
2019/01/22,00:20,0.220,0.199,0.323,0.300,0.281,0.160,0.097,west-northwest,10.1,No
2019/01/22,00:30,0.221,0.198,0.322,0.299,0.281,0.159,0.097,west-northwest,9.6,No
2019/01/22,00:40,0.221,0.197,0.323,0.301,0.281,0.159,0.097,west-northwest,7.9,No
2019/01/22,00:50,0.220,0.199,0.323,0.302,0.282,0.160,0.097,west-northwest,7.9,No
2019/01/22,01:00,0.220,0.199,0.323,0.301,0.282,0.161,0.097,west,7.3,No
2019/01/22,01:10,0.220,0.199,0.323,0.301,0.282,0.160,0.097,west,7.5,No
2019/01/22,01:20,0.220,0.199,0.322,0.300,0.281,0.160,0.097,west,5.1,No
2019/01/22,01:30,0.221,0.199,0.322,0.301,0.281,0.160,0.097,west-northwest,2.1,No
2019/01/22,01:40,0.220,0.198,0.322,0.301,0.281,0.159,0.097,west-southwest,1.2,No
2019/01/22,01:50,0.219,0.197,0.321,0.301,0.282,0.160,0.096,-,CALM,No
2019/01/22,02:00,0.220,0.198,0.321,0.301,0.280,0.159,0.097,south-southwest,0.9,No
2019/01/22,02:10,0.219,0.198,0.322,0.300,0.281,0.159,0.096,west,2.0,No
2019/01/22,02:20,0.219,0.198,0.322,0.301,0.279,0.160,0.096,west,2.2,No
2019/01/22,02:30,0.220,0.198,0.321,0.301,0.281,0.160,0.097,west-southwest,3.2,No
2019/01/22,02:40,0.219,0.197,0.321,0.299,0.281,0.160,0.096,west-southwest,6.2,No
2019/01/22,02:50,0.219,0.198,0.321,0.300,0.280,0.160,0.097,west-southwest,5.2,No
2019/01/22,03:00,0.221,0.198,0.322,0.301,0.281,0.159,0.096,west,5.1,No
2019/01/22,03:10,0.220,0.198,0.321,0.301,0.280,0.160,0.097,west,5.0,No
2019/01/22,03:20,0.220,0.197,0.322,0.302,0.281,0.159,0.097,west,2.2,No
2019/01/22,03:30,0.220,0.198,0.321,0.302,0.282,0.159,0.097,west-southwest,2.3,No
2019/01/22,03:40,0.219,0.196,0.320,0.301,0.280,0.159,0.097,west,5.8,No
2019/01/22,03:50,0.218,0.197,0.321,0.301,0.279,0.160,0.096,west-northwest,6.2,No
2019/01/22,04:00,0.220,0.197,0.322,0.300,0.280,0.159,0.097,west-northwest,7.6,No
2019/01/22,04:10,0.219,0.198,0.321,0.299,0.281,0.160,0.097,west-northwest,8.4,No
2019/01/22,04:20,0.220,0.196,0.321,0.301,0.281,0.160,0.097,west,9.8,No
2019/01/22,04:30,0.219,0.198,0.321,0.301,0.281,0.160,0.097,west,10.3,No
2019/01/22,04:40,0.219,0.198,0.322,0.300,0.281,0.159,0.097,west,8.4,No
2019/01/22,04:50,0.220,0.198,0.322,0.299,0.280,0.160,0.097,west-northwest,5.1,No
2019/01/22,05:00,0.220,0.199,0.323,0.300,0.280,0.159,0.096,northwest,4.5,No
2019/01/22,05:10,0.219,0.198,0.322,0.300,0.281,0.158,0.097,north-northwest,2.8,No
2019/01/22,05:20,0.220,0.198,0.322,0.302,0.281,0.159,0.097,northwest,2.8,No
2019/01/22,05:30,0.221,0.197,0.322,0.302,0.281,0.159,0.096,north-northwest,1.5,No
2019/01/22,05:40,0.219,0.197,0.323,0.300,0.281,0.160,0.096,west,1.9,No
2019/01/22,05:50,0.219,0.198,0.324,0.300,0.281,0.160,0.097,south,0.6,No
2019/01/22,06:00,0.219,0.198,0.322,0.301,0.282,0.159,0.096,southeast,1.2,No
2019/01/22,06:10,0.219,0.197,0.321,0.300,0.282,0.159,0.096,southwest,1.6,No
2019/01/22,06:20,0.219,0.198,0.322,0.300,0.280,0.159,0.096,east-northeast,2.5,No
2019/01/22,06:30,0.220,0.198,0.321,0.300,0.279,0.159,0.096,northeast,2.6,No
2019/01/22,06:40,0.218,0.198,0.322,0.300,0.280,0.160,0.096,north-northeast,3.7,No
2019/01/22,06:50,0.219,0.198,0.321,0.299,0.281,0.159,0.096,northeast,2.6,No
2019/01/22,07:00,0.218,0.198,0.321,0.299,0.280,0.159,0.096,northeast,1.9,No
2019/01/22,07:10,0.219,0.198,0.322,0.300,0.280,0.159,0.097,east-northeast,3.2,No
2019/01/22,07:20,0.220,0.198,0.321,0.300,0.280,0.159,0.096,east-northeast,2.9,No
2019/01/22,07:30,0.220,0.198,0.323,0.300,0.280,0.158,0.096,southeast,1.2,No
2019/01/22,07:40,0.220,0.198,0.322,0.300,0.280,0.160,0.096,south,1.9,No
2019/01/22,07:50,0.218,0.198,0.322,0.300,0.281,0.159,0.096,south-southwest,0.9,No
2019/01/22,08:00,0.219,0.198,0.320,0.299,0.281,0.159,0.096,-,CALM,No
2019/01/22,08:10,0.219,0.197,0.322,0.301,0.279,0.158,0.098,-,CALM,No
2019/01/22,08:20,0.218,0.198,0.321,0.301,0.280,0.160,0.096,north-northeast,2.1,No
2019/01/22,08:30,0.218,0.198,0.322,0.300,0.280,0.159,0.098,west,2.8,No
2019/01/22,08:40,0.218,0.198,0.322,0.300,0.279,0.159,0.096,west,9.5,No
2019/01/22,08:50,0.218,0.197,0.320,0.301,0.280,0.159,0.096,west,9.7,No
2019/01/22,09:00,0.219,0.197,0.322,0.301,0.281,0.158,0.095,west,10.3,No
2019/01/22,09:10,0.220,0.197,0.322,0.300,0.280,0.159,0.096,west,9.3,No
2019/01/22,09:20,0.218,0.197,0.321,0.300,0.281,0.159,0.097,west,9.8,No
2019/01/22,09:30,0.218,0.197,0.322,0.301,0.281,0.159,0.097,west,10.4,No
2019/01/22,09:40,0.219,0.198,0.322,0.299,0.281,0.159,0.096,west,8.9,No
2019/01/22,09:50,0.220,0.197,0.322,0.300,0.281,0.160,0.097,west,6.2,No
2019/01/22,10:00,0.219,0.198,0.322,0.300,0.281,0.160,0.095,west,6.8,No
2019/01/22,10:10,0.218,0.196,0.320,0.298,0.280,0.160,0.096,west-northwest,3.8,No
2019/01/22,10:20,0.218,0.196,0.320,0.298,0.281,0.160,0.096,west-northwest,10.4,No
2019/01/22,10:30,0.218,0.197,0.321,0.299,0.279,0.160,0.096,west-northwest,10.6,No
2019/01/22,10:40,0.218,0.197,0.322,0.298,0.281,0.160,0.096,west-northwest,9.5,No
2019/01/22,10:50,0.218,0.197,0.322,0.301,0.281,0.160,0.097,west-northwest,9.6,No
2019/01/22,11:00,0.217,0.198,0.321,0.300,0.280,0.160,0.096,west-northwest,9.2,No
2019/01/22,11:10,0.218,0.196,0.323,0.298,0.282,0.160,0.096,west-northwest,8.4,No
2019/01/22,11:20,0.218,0.196,0.324,0.300,0.280,0.160,0.097,west-northwest,6.2,No
2019/01/22,11:30,0.218,0.198,0.321,0.299,0.280,0.160,0.097,west-northwest,10.0,No
2019/01/22,11:40,0.219,0.197,0.322,0.301,0.281,0.159,0.096,northwest,10.3,No
2019/01/22,11:50,0.219,0.197,0.321,0.300,0.280,0.160,0.097,west-northwest,10.1,No
2019/01/22,12:00,0.218,0.197,0.322,0.299,0.283,0.160,0.097,northwest,10.6,No
2019/01/22,12:10,0.219,0.198,0.322,0.301,0.281,0.160,0.096,west-northwest,10.4,No
2019/01/22,12:20,0.219,0.197,0.321,0.300,0.281,0.159,0.096,west-northwest,11.2,No
2019/01/22,12:30,0.219,0.198,0.320,0.302,0.281,0.160,0.096,west-northwest,9.7,No
2019/01/22,12:40,0.220,0.197,0.321,0.300,0.280,0.160,0.096,west-northwest,12.3,No
2019/01/22,12:50,0.219,0.197,0.320,0.299,0.284,0.159,0.097,northwest,11.8,No
2019/01/22,13:00,0.218,0.198,0.321,0.300,0.281,0.160,0.096,northwest,11.4,No
2019/01/22,13:10,0.218,0.197,0.321,0.300,0.282,0.160,0.096,west-northwest,7.9,Yes
2019/01/22,13:20,0.214,0.198,0.322,0.302,0.283,0.160,0.096,west,5.8,Yes
2019/01/22,13:30,0.211,0.198,0.323,0.298,0.282,0.160,0.096,west-northwest,6.7,No
2019/01/22,13:40,0.212,0.197,0.320,0.298,0.281,0.160,0.097,west,7.9,No
2019/01/22,13:50,0.210,0.197,0.322,0.299,0.282,0.161,0.096,west-northwest,8.7,No
2019/01/22,14:00,0.209,0.198,0.322,0.299,0.280,0.160,0.096,west,9.8,No
2019/01/22,14:10,0.212,0.197,0.322,0.300,0.282,0.160,0.096,west,10.3,No
2019/01/22,14:20,0.213,0.197,0.322,0.299,0.279,0.159,0.096,west,10.9,No
2019/01/22,14:30,0.211,0.197,0.322,0.300,0.281,0.159,0.096,west-northwest,7.0,No
2019/01/22,14:40,0.211,0.199,0.323,0.301,0.282,0.160,0.096,west-northwest,7.8,No
2019/01/22,14:50,0.210,0.198,0.321,0.300,0.282,0.159,0.096,west-northwest,7.9,No
2019/01/22,15:00,0.212,0.199,0.322,0.301,0.281,0.159,0.096,west-northwest,6.5,No
2019/01/22,15:10,0.213,0.197,0.321,0.300,0.284,0.160,0.096,west,9.6,No
2019/01/22,15:20,0.213,0.197,0.322,0.301,0.281,0.160,0.097,west-northwest,8.7,No
2019/01/22,15:30,0.218,0.198,0.323,0.302,0.281,0.159,0.096,west-northwest,9.7,No
2019/01/22,15:40,0.219,0.199,0.322,0.301,0.282,0.160,0.096,west,7.9,No
2019/01/22,15:50,0.219,0.198,0.324,0.302,0.282,0.160,0.096,west-northwest,6.8,No
2019/01/22,16:00,0.219,0.197,0.321,0.301,0.282,0.161,0.095,west-northwest,8.2,No
2019/01/22,16:10,0.219,0.196,0.322,0.299,0.281,0.160,0.096,west,8.1,No
2019/01/22,16:20,0.218,0.197,0.323,0.302,0.281,0.161,0.096,west-northwest,6.6,No
2019/01/22,16:30,0.218,0.197,0.323,0.301,0.280,0.160,0.096,west,8.1,No
2019/01/22,16:40,0.217,0.197,0.322,0.301,0.281,0.160,0.097,west,8.8,No
2019/01/22,16:50,0.219,0.197,0.322,0.301,0.281,0.160,0.096,west,7.7,No
2019/01/22,17:00,0.219,0.198,0.322,0.302,0.282,0.160,0.096,west,9.0,No
2019/01/22,17:10,0.218,0.197,0.322,0.301,0.283,0.160,0.097,west-northwest,10.4,No
2019/01/22,17:20,0.219,0.198,0.322,0.300,0.281,0.159,0.096,west,9.8,No
2019/01/22,17:30,0.219,0.198,0.322,0.301,0.280,0.159,0.096,west-northwest,8.5,No
2019/01/22,17:40,0.218,0.197,0.322,0.301,0.280,0.160,0.096,west,8.5,No
2019/01/22,17:50,0.219,0.199,0.322,0.302,0.281,0.159,0.097,west,8.9,No
2019/01/22,18:00,0.219,0.198,0.322,0.301,0.282,0.159,0.097,west,6.8,No
2019/01/22,18:10,0.218,0.198,0.322,0.301,0.282,0.160,0.096,west,5.2,No
2019/01/22,18:20,0.219,0.198,0.322,0.300,0.280,0.159,0.096,west,3.8,No
2019/01/22,18:30,0.219,0.198,0.321,0.302,0.282,0.160,0.096,west-southwest,3.0,No
2019/01/22,18:40,0.219,0.198,0.322,0.301,0.281,0.159,0.097,west,6.4,No
2019/01/22,18:50,0.219,0.199,0.322,0.302,0.282,0.160,0.096,west,5.2,No
2019/01/22,19:00,0.218,0.198,0.322,0.301,0.280,0.160,0.097,west,5.7,No
2019/01/22,19:10,0.219,0.198,0.323,0.301,0.279,0.159,0.097,west-northwest,4.9,No
2019/01/22,19:20,0.219,0.197,0.321,0.299,0.279,0.159,0.096,west,5.0,No
2019/01/22,19:30,0.220,0.197,0.322,0.300,0.281,0.159,0.097,west-northwest,4.5,No
2019/01/22,19:40,0.219,0.198,0.321,0.301,0.281,0.161,0.097,west-northwest,2.1,No
2019/01/22,19:50,0.219,0.197,0.322,0.302,0.280,0.159,0.097,west-southwest,0.8,No
2019/01/22,20:00,0.218,0.197,0.321,0.301,0.280,0.159,0.097,west,2.0,No
2019/01/22,20:10,0.219,0.197,0.322,0.301,0.280,0.160,0.097,west,2.1,No
2019/01/22,20:20,0.219,0.197,0.322,0.301,0.280,0.159,0.096,west-southwest,3.2,No
2019/01/22,20:30,0.220,0.198,0.321,0.301,0.281,0.160,0.096,west,4.4,No
2019/01/22,20:40,0.220,0.197,0.323,0.302,0.280,0.160,0.097,west,4.4,No
2019/01/22,20:50,0.219,0.198,0.321,0.302,0.280,0.159,0.096,west,4.9,No
2019/01/22,21:00,0.219,0.197,0.322,0.300,0.279,0.160,0.096,west-southwest,4.7,No
2019/01/22,21:10,0.220,0.197,0.321,0.300,0.282,0.160,0.097,west-southwest,4.1,No
2019/01/22,21:20,0.219,0.198,0.323,0.302,0.280,0.159,0.097,west-southwest,4.1,No
2019/01/22,21:30,0.219,0.198,0.323,0.300,0.280,0.159,0.097,southwest,4.3,No
2019/01/22,21:40,0.218,0.197,0.321,0.301,0.280,0.160,0.097,west-southwest,4.6,No
2019/01/22,21:50,0.219,0.197,0.323,0.301,0.280,0.160,0.096,west-southwest,4.3,No
2019/01/22,22:00,0.219,0.198,0.322,0.301,0.281,0.159,0.097,west-southwest,4.1,No
2019/01/22,22:10,0.220,0.197,0.322,0.300,0.282,0.160,0.097,west,3.3,No
2019/01/22,22:20,0.220,0.198,0.323,0.301,0.280,0.160,0.097,west,2.1,No
2019/01/22,22:30,0.218,0.198,0.322,0.301,0.280,0.160,0.097,west-southwest,1.7,No
2019/01/22,22:40,0.219,0.198,0.321,0.301,0.280,0.161,0.097,southwest,0.9,No
2019/01/22,22:50,0.220,0.198,0.323,0.300,0.280,0.159,0.097,-,CALM,No
2019/01/22,23:00,0.220,0.198,0.323,0.301,0.281,0.160,0.097,west-northwest,0.9,No
2019/01/22,23:10,0.219,0.198,0.322,0.301,0.281,0.160,0.097,west,2.5,No
2019/01/22,23:20,0.220,0.198,0.322,0.301,0.281,0.160,0.097,northwest,1.2,No
2019/01/22,23:30,0.219,0.197,0.322,0.300,0.281,0.160,0.097,west-northwest,2.2,No
2019/01/22,23:40,0.219,0.198,0.323,0.301,0.280,0.160,0.097,west-northwest,2.6,No
2019/01/22,23:50,0.220,0.198,0.322,0.301,0.281,0.159,0.097,west-northwest,2.3,No
